Regional Weather Roundup
Issued by NWS Green Bay, WI

Home | Current Version | Previous Version | Text Only | Print | Product List | Glossary On
Versions: 1 2 3 4 5 6 7 8 9 10 11 12 13 14 15 16 17 18 19 20 21 22 23 24 25 26 27 28 29 30 31 32 33 34 35 36 37 38 39 40 41 42 43 44 45 46 47 48 49 50
000
ASUS43 KGRB 290811
RWRGRB

NORTH-CENTRAL AND NORTHEAST WISCONSIN REGIONAL WEATHER ROUNDUP
NATIONAL WEATHER SERVICE GREEN BAY WI
300 AM CDT THU SEP 29 2016

WIZ005-009-010>012-018-019-290900-
NORTH CENTRAL WISCONSIN

CITY           SKY/WX    TMP DP  RH WIND       PRES   REMARKS
IRONWOOD       CLOUDY    48  46  93 CALM      30.42R
MANITOWISH WTR PTCLDY    47  47 100 NE3       30.39R
ARBOR VITAE    MOCLDY    49  48  96 N5        30.38R
EAGLE RIVER    MOCLDY    46  46 100 CALM      30.37S FOG
LAND O LAKES   CLOUDY    48  48  99 N5        30.40R FOG
RHINELANDER    CLEAR     46  46 100 N5        30.37R
PHILLIPS       MOCLDY    46  46 100 N3        30.37F
ANTIGO         CLEAR     47  47  98 CALM      30.34S
TOMAHAWK         N/A     43  42  97 NW3       30.37R FOG
MERRILL        CLEAR     44  44 100 N5        30.36R
$$

WIZ013-073-290900-
NORTHEAST WISCONSIN

CITY           SKY/WX    TMP DP  RH WIND       PRES   REMARKS
IRON MOUNTAIN  CLEAR     50  47  89 W6        30.34R
MARINETTE      CLEAR     53  50  89 N9        30.31R
OCONTO         CLEAR     52  49  91 N8G16     30.29S
$$

WIZ017-030-035>037-045-290900-
CENTRAL WISCONSIN

CITY           SKY/WX    TMP DP  RH WIND       PRES   REMARKS
MEDFORD        CLEAR    N/A N/A N/A N5        30.35R
WAUSAU         CLEAR     49  47  93 N3        30.32S
MOSINEE        CLEAR     48  46  93 N8        30.33S
MARSHFIELD     CLEAR     50  46  86 NE8       30.32S
WISC RAPIDS    CLEAR     51  49  92 NE10      30.33R
STEVENS POINT  CLEAR     46  46 100 N3        30.33R
WAUPACA        CLEAR     52  51  95 N7        30.31R
SHAWANO        PTCLDY    53  49  89 N6        30.32R
CLINTONVILLE   CLEAR     50  46  87 N9        30.31R
WAUTOMA        CLEAR     52  49  89 N8        30.30R
$$

WIZ038-039-048-051-290900-
FOX VALLEY

CITY           SKY/WX    TMP DP  RH WIND       PRES   REMARKS
NWS GREEN BAY  CLEAR     52  52 100 N12       30.28R
APPLETON       CLEAR     50  50 100 N14       30.27R
OSHKOSH        MOCLDY    54  50  86 N17G24    30.26R
FOND DU LAC    CLOUDY    56  53  90 N13       30.26R
$$

WIZ022-050-052-290900-
EAST CENTRAL WISCONSIN

CITY           SKY/WX    TMP DP  RH WIND       PRES   REMARKS
EPHRAIM        FAIR      57  55  93 N12G20    30.28S
WASHINGTON ISL CLOUDY    57  55  91 N15G21    30.29R
STURGEON BAY   CLEAR     58  55  90 N14       30.28R
MANITOWOC      CLEAR     56  53  90 MISG      30.24R
SHEBOYGAN      PTCLDY    56  52  86 N13       30.22R
$$

LMZ563-521-522-541>543-290900-
LAKESHORE

STATION/POSITION TIME  TEMP    WIND        PRES    VSBY  WAVE
                       AIR SEA DIR/SP/G                  HT/PER
                 (UTC) (F)     (DEG/KT/KT) (MB)    (MI)  (FT/S)
SHEBOYGAN LKSHOR 0800   57     360/ 22/ 24 1022.7R
KEWAUNEE LKSHORE 0700   57     360/  7/ 15 1023.5R
NORTHPORT PIER   0700   60      10/ 16/ 21 1025.4R
N MID LAKE BUOY  0750   63 66   20/ 17/ 21 1024.5R         4/ 5
SISTER BAY LKSHO 0708   58     360/ 15/ 18   N/A
CHAMBERS ISLAND  0700   59     350/ 19/ 22 1024.7S
MENOMINEE LKSHOR 0700   56     350/ 15/ 18 1024.7R
$$



USA.gov is the U.S. government's official web portal to all federal, state and local government web resources and services.